Location: Ch�tillon
(48.8024°N, 2.2935°E)
Time: 18:10:19
(UTC+00:00)

RS-15 - Pass Details

Date: 28 June 2022
Orbit: 1881 x 2163 km, 64.8° (Epoch: 11 August)

Event Time Altitude Azimuth Distance (km) Brightness Sun altitude
Rises 20:27:04 0° 297° (WNW) 5,658 12.2 -4.4°
Reaches altitude 10° 20:30:58 10° 305° (NW) 4,674 11.8 -4.9°
Maximum altitude 20:42:22 40° 13° (NNE) 2,926 9.3 -6.2°
Drops below altitude 10° 20:53:41 10° 80° (E) 4,640 9.7 -7.5°
Sets 20:57:31 0° 88° (E) 5,615 10.1 -7.9°
